[[{"header":{"parameterUnit":"m.s-1","parameterCategory":1,"la1":30.2991,"la2":30.254,"lo1":-89.0895,"lo2":-89.0444,"dx":0.0017,"dy":0.0017,"nx":28,"ny":28,"refTime":"2022-12-05T15:00:00:Z","depth":0,"parameterNumber":2,"parameterNumberName":"U-component_of_WINDS"},"data":[0,0,0,0,0,0,0,0,0,0,0,0,0,0,0,0,0,0,0,0,0,0,0,0,0,0,0,0,0,0,0,0,0,0,0,0,0,0,0,0,0,0,0,0,0,0,0,0,0,0,0,0,0,0,0,0,0,0,0.224,0.2241,0,0.2296,0.2297,0.2297,0.2318,0.2318,0.2318,0.2318,0.2378,0.238,0.2381,0,0,0,0,0,0,0,0,0,0,0,0,0,0.2156,0.2158,0.224,0.2241,0.2242,0.2296,0.2297,0.2297,0.2318,0.2318,0.2318,0.2317,0.2377,0.2379,0.2382,0,0,0,0,0,0,0,0,0,0,0,0,0,0.22,0.2158,0.224,0.2259,0.2261,0.2296,0.2297,0.2298,0.2318,0.2318,0.2318,0.2317,0.2377,0.2379,0.2382,0.2404,0,0,0.239,0.2391,0,0,0,0,0,0,0,0,0.2198,0.2204,0.2255,0.2257,0.226,0.23,0.2289,0.2333,0.2318,0.2296,0.2318,0.2317,0.2352,0.2357,0.2368,0.2407,0.2409,0.239,0.2392,0.2393,0.2394,0,0,0,0,0,0,0,0.2195,0.2201,0.2263,0.2256,0.2259,0.2265,0.2271,0.2298,0.2325,0.2298,0.23,0.2306,0.2354,0.2366,0.237,0.241,0.239,0.2393,0.2394,0.2395,0.2471,0.2471,0,0,0,0,0,0,0.2188,0.2199,0.2261,0.2264,0.2227,0.2267,0.2274,0.2287,0.2325,0.2331,0.2306,0.2307,0.2361,0.2367,0.2372,0.2401,0.2393,0.2396,0.2397,0.2471,0.2471,0.2472,0,0,0,0,0,0,0.2186,0.2193,0.2259,0.2232,0.2241,0.2269,0.2284,0.2289,0.23,0.2331,0.2337,0.2313,0.2361,0.2368,0.2396,0.2403,0.2397,0.2399,0.247,0.2471,0.2471,0.2458,0,0,0,0,0,0,0.2184,0.2193,0.22,0.2232,0.2242,0.228,0.2284,0.229,0.2305,0.2306,0.2339,0.2344,0.2361,0.2392,0.2398,0.2407,0.2401,0.247,0.247,0.2471,0.2458,0.2458,0.2458,0,0,0,0,0,0.2181,0.2195,0.2201,0.2208,0.2252,0.228,0.2286,0.2305,0.2305,0.2314,0.2334,0.2343,0.2401,0.2394,0.2402,0.2411,0.2469,0.247,0.2471,0.2458,0.2458,0.2458,0,0,0,0,0,0,0.2164,0.2199,0.2206,0.223,0.2252,0.2284,0.2295,0.2304,0.2327,0.2328,0.2351,0.2359,0.2384,0.2401,0.2392,0.2435,0.2436,0.2439,0.2424,0.2424,0.2424,0.242,0.2403,0,0,0,0,0,0.2163,0.2183,0.2213,0.2232,0.2242,0.2267,0.228,0.2292,0.2316,0.2326,0.2348,0.2372,0.2396,0.2411,0.2434,0.2461,0.2469,0.2471,0.2471,0.2471,0.2473,0.249,0.2491,0.2475,0.2475,0.2475,0,0,0.2162,0.2184,0.2194,0.2229,0.2247,0.2268,0.2274,0.2296,0.2312,0.233,0.2357,0.2374,0.2402,0.2429,0.2443,0.2444,0.248,0.2472,0.2472,0.2474,0.2491,0.2492,0.2494,0.2475,0.2475,0.2475,0,0,0.217,0.2188,0.2206,0.2224,0.2251,0.2268,0.2272,0.2303,0.2314,0.2342,0.2356,0.2376,0.2416,0.2436,0.2451,0.2468,0.2478,0.2475,0.2476,0.2492,0.2493,0.2494,0.2501,0.2503,0.2477,0.2477,0.2477,0,0.2165,0.2196,0.2214,0.2235,0.225,0.2267,0.2286,0.2303,0.2337,0.2348,0.2349,0.24,0.242,0.2453,0.2457,0.2468,0.2475,0.2472,0.2491,0.2493,0.2494,0.2501,0.2503,0.2477,0.2477,0.2477,0.2477,0,0.2189,0.221,0.2221,0.2253,0.227,0.2289,0.2312,0.2327,0.2339,0.2355,0.2384,0.2409,0.2438,0.2447,0.2458,0.2482,0.2482,0.2486,0.2488,0.2495,0.2502,0.2504,0.2476,0.2476,0.2476,0.2476,0,0,0.2187,0.2229,0.2233,0.2248,0.228,0.2298,0.2319,0.2347,0.2359,0.2383,0.2402,0.2436,0.2441,0.2458,0.2472,0.2486,0.2499,0.249,0.2491,0.2491,0.2527,0.2523,0.2526,0.2506,0.2506,0.2507,0.2525,0,0.22,0.2237,0.2255,0.2285,0.2306,0.2322,0.2341,0.2364,0.238,0.2401,0.242,0.2444,0.2448,0.2459,0.2473,0.2494,0.2506,0.2493,0.2525,0.2526,0.2517,0.2529,0.2525,0.2541,0.2527,0.2528,0.2528,0,0.2219,0.2242,0.2274,0.2304,0.2313,0.233,0.2357,0.2376,0.2403,0.2414,0.2434,0.2447,0.2472,0.2471,0.2506,0.2497,0.2511,0.2524,0.2525,0.2529,0.2527,0.2534,0.2546,0.2549,0.2532,0.2532,0.2532,0,0.2216,0.2254,0.2278,0.2291,0.2326,0.2338,0.2354,0.238,0.2395,0.242,0.2431,0.2458,0.2473,0.2494,0.2516,0.2513,0.2549,0.255,0.256,0.256,0.2567,0.2566,0.2582,0.2576,0.2576,0.2576,0.2576,0,0.2228,0.2247,0.2277,0.2292,0.2315,0.2336,0.2358,0.2375,0.2398,0.2418,0.2434,0.2453,0.248,0.2502,0.2519,0.2546,0.2553,0.2563,0.2568,0.2562,0.2561,0.2572,0.2571,0.2576,0.2576,0.2576,0.2576,0,0.2227,0.2248,0.2276,0.2308,0.2316,0.2332,0.2359,0.2375,0.2393,0.2418,0.2425,0.2453,0.248,0.2503,0.2539,0.2551,0.2579,0.2584,0.257,0.2572,0.2581,0.258,0.2605,0.261,0.2599,0.2599,0.2599,0,0.2234,0.2249,0.2282,0.2296,0.2311,0.2333,0.235,0.2372,0.2388,0.242,0.2432,0.246,0.2484,0.2527,0.2551,0.2579,0.2585,0.2592,0.259,0.2584,0.2586,0.2585,0.2587,0.2592,0.2592,0.2592,0.2592,0,0.2243,0.2253,0.2275,0.2301,0.232,0.2341,0.2364,0.2375,0.2401,0.2419,0.2446,0.2465,0.2501,0.253,0.256,0.2578,0.259,0.2593,0.2597,0.2591,0.2582,0.2588,0.257,0.2592,0.2592,0.2592,0.2592,0.2592,0.2247,0.2261,0.2287,0.2311,0.233,0.2351,0.2368,0.2388,0.241,0.2441,0.2453,0.2482,0.2509,0.2551,0.2569,0.2593,0.2595,0.26,0.2602,0.2603,0.2602,0.2578,0.2598,0.2599,0.2599,0.2599,0.2599,0,0.2257,0.2275,0.2297,0.2328,0.2347,0.2356,0.2381,0.2398,0.2422,0.2446,0.2469,0.2501,0.2529,0.2555,0.2585,0.2598,0.2605,0.2605,0.2605,0.2609,0.2598,0.2592,0.26,0.26,0.26,0.26,0.26,0.26,0.2265,0.229,0.2303,0.2338,0.2356,0.2383,0.2397,0.2417,0.2437,0.2471,0.2494,0.2511,0.2537,0.2568,0.2594,0.2602,0.2612,0.2611,0.262,0.261,0.2609,0.2609,0.2603,0.2613,0.2613,0.2629,0.2629,0.2629]},{"header":{"parameterUnit":"m.s-1","parameterCategory":1,"la1":30.2991,"la2":30.254,"lo1":-89.0895,"lo2":-89.0444,"dx":0.0017,"dy":0.0017,"nx":28,"ny":28,"refTime":"2022-12-05T15:00:00:Z","depth":0,"parameterNumber":3,"parameterNumberName":"V-component_of_WINDS"},"data":[0,0,0,0,0,0,0,0,0,0,0,0,0,0,0,0,0,0,0,0,0,0,0,0,0,0,0,0,0,0,0,0,0,0,0,0,0,0,0,0,0,0,0,0,0,0,0,0,0,0,0,0,0,0,0,0,0,0,2.7692,2.7692,0,2.7653,2.7653,2.7652,2.7631,2.7631,2.7631,2.7631,2.7587,2.7586,2.7585,0,0,0,0,0,0,0,0,0,0,0,0,0,2.7746,2.7745,2.7692,2.7692,2.7691,2.7653,2.7653,2.7652,2.7631,2.7631,2.7631,2.7631,2.7588,2.7586,2.7585,0,0,0,0,0,0,0,0,0,0,0,0,0,2.7716,2.7745,2.7692,2.7676,2.7675,2.7653,2.7653,2.7652,2.7631,2.7631,2.7631,2.7631,2.7588,2.7587,2.7585,2.7575,0,0,2.758,2.7579,0,0,0,0,0,0,0,0,2.7718,2.7714,2.7679,2.7677,2.7675,2.7647,2.7655,2.7626,2.7631,2.7648,2.7631,2.7631,2.7607,2.7604,2.7596,2.7573,2.7571,2.7579,2.7578,2.7578,2.7577,0,0,0,0,0,0,0,2.772,2.7716,2.7677,2.7679,2.7676,2.767,2.7666,2.765,2.7628,2.7646,2.7645,2.764,2.7606,2.7598,2.7595,2.7571,2.758,2.7578,2.7577,2.7576,2.7538,2.7538,0,0,0,0,0,0,2.7725,2.7718,2.7678,2.7675,2.7697,2.7669,2.7665,2.7656,2.7628,2.7624,2.7641,2.764,2.7601,2.7597,2.7594,2.7581,2.7578,2.7576,2.7575,2.7538,2.7538,2.7538,0,0,0,0,0,0,2.7726,2.7722,2.7679,2.7696,2.769,2.7668,2.7659,2.7655,2.7648,2.7624,2.762,2.7637,2.7601,2.7596,2.758,2.7579,2.7575,2.7574,2.7538,2.7538,2.7538,2.7556,0,0,0,0,0,0,2.7728,2.7722,2.7719,2.7696,2.7689,2.7668,2.7659,2.7655,2.7645,2.7644,2.7619,2.7615,2.76,2.7583,2.7579,2.7577,2.7572,2.7538,2.7538,2.7538,2.7555,2.7556,2.7558,0,0,0,0,0,2.773,2.7724,2.7719,2.7714,2.7685,2.7668,2.7664,2.7648,2.7645,2.7641,2.7626,2.7616,2.758,2.7582,2.7577,2.7574,2.7538,2.7538,2.7538,2.7555,2.7556,2.7557,0,0,0,0,0,0,2.7746,2.7721,2.7715,2.7702,2.7687,2.7664,2.7659,2.765,2.7635,2.7634,2.7614,2.7609,2.7595,2.7583,2.7585,2.7564,2.7558,2.7557,2.7572,2.7574,2.7575,2.7578,2.7571,0,0,0,0,0,2.7748,2.7737,2.7716,2.7706,2.77,2.7681,2.7672,2.7662,2.7646,2.7639,2.7622,2.7606,2.7591,2.7582,2.7567,2.7554,2.7548,2.7549,2.7551,2.7552,2.7551,2.7544,2.7544,2.7539,2.7539,2.7539,0,0,2.7752,2.7737,2.7731,2.7709,2.7697,2.7685,2.7675,2.7663,2.7654,2.7636,2.7621,2.7609,2.7589,2.7575,2.7568,2.7565,2.7551,2.7552,2.7553,2.7551,2.7544,2.7544,2.7545,2.7539,2.7539,2.7539,0,0,2.7754,2.7741,2.7733,2.7721,2.7703,2.7691,2.7689,2.7667,2.7659,2.7644,2.7631,2.7619,2.7594,2.7581,2.757,2.7569,2.7559,2.7564,2.757,2.7563,2.7564,2.7564,2.7563,2.7563,2.7564,2.7564,2.7564,0,2.7761,2.7744,2.7729,2.7718,2.7709,2.7694,2.7685,2.7674,2.7651,2.7645,2.7642,2.7611,2.7596,2.7579,2.7579,2.7571,2.7568,2.7567,2.7565,2.7565,2.7565,2.7564,2.7564,2.7565,2.7564,2.7564,2.7564,0,2.7753,2.7742,2.7737,2.7717,2.7708,2.7697,2.7681,2.7672,2.7663,2.7651,2.7636,2.7618,2.76,2.7595,2.7585,2.7577,2.7576,2.7569,2.7563,2.7567,2.7566,2.7565,2.7566,2.7565,2.7565,2.7565,0,0,2.7763,2.7737,2.7735,2.7726,2.7706,2.7696,2.7686,2.7669,2.7663,2.7648,2.7638,2.7618,2.7612,2.7601,2.7589,2.7583,2.7584,2.7577,2.7577,2.7579,2.7574,2.7579,2.7579,2.7577,2.7577,2.7577,2.7576,0,2.7761,2.7743,2.773,2.7717,2.7706,2.7693,2.7683,2.7669,2.7658,2.7647,2.7633,2.762,2.7613,2.7606,2.76,2.7585,2.7582,2.7585,2.7567,2.7567,2.7573,2.7579,2.7584,2.7583,2.7575,2.7575,2.7575,0,2.7757,2.7745,2.7731,2.7713,2.7708,2.77,2.7684,2.7674,2.7658,2.765,2.7638,2.7627,2.7615,2.761,2.7593,2.7595,2.7587,2.7579,2.7578,2.7576,2.7571,2.7576,2.7583,2.7583,2.7574,2.7574,2.7574,0,2.7766,2.7746,2.7735,2.7728,2.7706,2.7701,2.7692,2.7676,2.7667,2.7653,2.7647,2.7632,2.7623,2.7611,2.7595,2.7593,2.7579,2.7573,2.7572,2.7572,2.7569,2.757,2.7575,2.7564,2.7564,2.7564,2.7564,0,2.7766,2.7758,2.7739,2.7732,2.7722,2.7708,2.7698,2.7688,2.7674,2.7664,2.7651,2.7642,2.7622,2.7611,2.7598,2.7586,2.7582,2.7575,2.7572,2.7576,2.7577,2.757,2.757,2.7564,2.7564,2.7564,2.7564,0,2.7774,2.7761,2.7748,2.773,2.7725,2.7719,2.7702,2.7695,2.7684,2.7672,2.7668,2.7649,2.7635,2.7619,2.7599,2.7591,2.7579,2.7575,2.7585,2.7583,2.7583,2.7583,2.7584,2.7583,2.7574,2.7574,2.7574,0,2.7775,2.7768,2.775,2.7743,2.7735,2.7724,2.7716,2.7701,2.7693,2.7675,2.767,2.7655,2.7643,2.7621,2.7605,2.7589,2.7584,2.7585,2.7582,2.7587,2.7584,2.7585,2.7584,2.7586,2.7586,2.7587,2.7587,0,2.7778,2.7772,2.7761,2.7748,2.7739,2.7728,2.7716,2.7711,2.7694,2.7685,2.7672,2.7662,2.7643,2.7628,2.7612,2.7601,2.7591,2.7588,2.7587,2.7591,2.7598,2.7595,2.7588,2.7588,2.7588,2.7588,2.7588,2.7588,2.7782,2.7776,2.7763,2.7751,2.7741,2.7731,2.7724,2.7712,2.7701,2.7685,2.7677,2.7664,2.7648,2.7625,2.7614,2.7603,2.76,2.7598,2.7597,2.7597,2.7599,2.76,2.76,2.76,2.76,2.76,2.76,0,2.7784,2.7775,2.7765,2.775,2.7741,2.7735,2.7721,2.7714,2.7703,2.769,2.7679,2.7664,2.765,2.7634,2.7619,2.7613,2.7608,2.7609,2.7609,2.7607,2.7603,2.7605,2.7614,2.7614,2.7613,2.7613,2.7613,2.7613,2.7784,2.7775,2.7767,2.7753,2.7743,2.7731,2.7725,2.7715,2.7705,2.7689,2.7678,2.7668,2.7654,2.7638,2.7625,2.762,2.7615,2.7618,2.7612,2.7608,2.7607,2.7606,2.7608,2.7617,2.7617,2.7618,2.7618,2.7618]}]]